Hourly Weather Roundup
Issued by NWS Central Illinois

Home | Current Version | Previous Version | Text Only | Print | Product List | Glossary Off
Versions: 1 2 3 4 5 6 7 8 9 10 11 12 13 14 15 16 17 18 19 20 21 22 23 24 25 26 27 28 29 30 31 32 33 34 35 36 37 38 39 40 41 42 43 44 45 46 47 48 49 50

000
NZUS43 KILX 061610
HWRILX

AREA WEATHER ROUNDUP
NATIONAL WEATHER SERVICE, LINCOLN IL
1100 AM CDT WED MAY 06 2015


CITY           SKY/WX    TMP DP  RH WIND       PRES   REMARKS
BLOOMINGTON    SUNNY     79  60  51 S12       30.17F HX  80
CHAMPAIGN      MOSUNNY   84  49  29 S14       30.17F HX  82
DANVILLE       MOSUNNY   80  56  43 W7        30.16S HX  80
DECATUR        MOSUNNY   81  52  36 S13G23    30.16F HX  80
EFFINGHAM      SUNNY     81  49  32 S8        30.19F HX  80
FLORA          SUNNY     82  52  35 S13G21    30.19S HX  81
GALESBURG      MOSUNNY   76  60  59 S9        30.12S
JACKSONVILLE   SUNNY     83  54  36 S16       30.13S HX  82
LACON          MOSUNNY   74  60  63 SW6       30.13F
LAWRENCEVILLE  SUNNY     82  54  37 SW8       30.20S HX  81
LITCHFIELD     MOSUNNY   80  52  37 S15G21    30.15S HX  80
$$


CITY           SKY/WX    TMP DP  RH WIND       PRES   REMARKS
LINCOLN        MOSUNNY   80  53  39 SW8G17    30.13S HX  80
MACOMB         SUNNY     78  57  49 S17G23    30.13S
MATTOON        LGT RAIN  80  53  39 SW10      30.17F HX  80
MT CARMEL AP   MOSUNNY   86  43  22 SW8       30.19S HX  83
OLNEY-NOBLE AP SUNNY     81  52  36 S8        30.19S HX  80
PARIS          SUNNY     83  52  33 S13       30.19S HX  82
PEORIA         SUNNY     79  59  50 S13G18    30.14F HX  80
PONTIAC        MOSUNNY   78  62  57 S8        30.17F HX  80
RANTOUL        SUNNY     82  55  39 SW10G16   30.17F HX  81
ROBINSON       SUNNY     82  49  31 W8        30.20S HX  81
SPRINGFIELD    MOSUNNY   82  54  37 S14G22    30.14S HX  81
TAYLORVILLE    MOSUNNY   81  52  36 S16G22    30.15S HX  80
$$

...REGIONAL REPORTS...


CITY           SKY/WX    TMP DP  RH WIND       PRES   REMARKS
CHICAGO O`HARE PTSUNNY   64  58  80 VRB5      30.17S HAZE
KANKAKEE       PTSUNNY   74  67  79 S5        30.18F
MOLINE         MOSUNNY   72  60  66 SE9       30.10F
MOUNT VERNON   SUNNY    N/A N/A N/A S12       30.18S
PITTSFIELD     SUNNY     80  55  42 S15       30.12S HX  80
QUINCY         SUNNY     79  54  41 S18G26    30.08F
ROCKFORD       CLOUDY    63  57  81 SE9       30.17F HAZE
$$


CITY           SKY/WX    TMP DP  RH WIND       PRES   REMARKS
BURLINGTON     SUNNY     78  60  53 S12       30.08S
CEDAR RAPIDS   MOSUNNY   72  62  71 SE12      30.06F
DES MOINES     CLOUDY    75  58  55 SE24      29.94F
KIRKSVILLE     MOSUNNY   77  60  55 S20G28    30.02F
OTTUMWA        PTSUNNY   77  58  51 S16G29    30.00F
ST LOUIS       PTSUNNY   82  56  40 S10G18    30.13S HX  82
$$


CITY           SKY/WX    TMP DP  RH WIND       PRES   REMARKS
TERRE HAUTE    SUNNY     81  54  39 W5        30.19F HX  81
EVANSVILLE     MOSUNNY   80  55  42 SW3       30.20F HX  80
INDIANAPOLIS   MOSUNNY   81  55  40 VRB6      30.20S HX  81
LAFAYETTE      SUNNY     78  58  49 VRB5      30.19S
MADISON        CLOUDY    56  54  93 S6        30.17S FOG
MILWAUKEE      PTSUNNY   50  45  83 NE6       30.21S
$$





USA.gov is the U.S. government's official web portal to all federal, state and local government web resources and services.